FW7500 Weather Reports


Display with metric or nautical units.
time (UTC)temp
F
wind
direction
speed
MPH
gust
MPH
rain 1hr
in
rain 24hr
in
rain mn
in
humidity
%
barometer
mb
20260903001603 84 0 0.0 0.0 0.00 0.00 0.00 74 1017.5
20260903000053 86 0 0.0 0.0 0.00 0.00 0.00 70 1017.5
20260902234606 88 0 0.0 0.0 0.00 0.00 0.00 66 1017.4
20260902233101 89 0 0.0 0.0 0.00 0.00 0.00 63 1017.6
20260902231609 90 0 0.0 0.0 0.00 0.00 0.00 60 1017.6
20260902230053 90 0 0.0 0.0 0.00 0.00 0.00 59 1017.7
20260902224607 91 0 0.0 0.0 0.00 0.00 0.00 57 1017.7
20260902223058 91 0 0.0 0.0 0.00 0.00 0.00 56 1017.7
20260902221605 92 0 0.0 0.0 0.00 0.00 0.00 55 1017.7
20260902220105 92 0 0.0 0.0 0.00 0.00 0.00 54 1017.9
20260902214604 92 0 0.0 0.0 0.00 0.00 0.00 53 1017.8
20260902213107 92 0 0.0 0.0 0.00 0.00 0.00 52 1017.9
20260902211606 93 0 0.0 0.0 0.00 0.00 0.00 51 1017.9
20260902210105 93 0 0.0 0.0 0.00 0.00 0.00 52 1017.9
20260902204602 93 0 0.0 0.0 0.00 0.00 0.00 52 1018.0
20260902203127 93 0 0.0 0.0 0.00 0.00 0.00 51 1018.1
20260902201613 93 0 0.0 0.0 0.00 0.00 0.00 53 1018.2
20260902200105 93 0 0.0 0.0 0.00 0.00 0.00 55 1018.3
20260902194601 93 0 0.0 0.0 0.00 0.00 0.00 53 1018.6
20260902193133 93 0 0.0 0.0 0.00 0.00 0.00 53 1018.7
20260902191557 93 0 0.0 0.0 0.00 0.00 0.00 52 1018.9
20260902190055 93 0 0.0 0.0 0.00 0.00 0.00 54 1019.0
20260902184603 92 0 0.0 0.0 0.00 0.00 0.00 53 1019.2
20260902183123 93 0 0.0 0.0 0.00 0.00 0.00 51 1019.4
20260902181557 92 0 0.0 0.0 0.00 0.00 0.00 54 1019.3
20260902180054 91 0 0.0 0.0 0.00 0.00 0.00 58 1019.5
20260902174607 92 0 0.0 0.0 0.00 0.00 0.00 54 1019.6
20260902173055 91 0 0.0 0.0 0.00 0.00 0.00 56 1019.6
20260902171607 91 0 0.0 0.0 0.00 0.00 0.00 58 1019.8
20260902170104 90 0 0.0 0.0 0.00 0.00 0.00 57 1019.9
20260902164558 90 0 0.0 0.0 0.00 0.00 0.00 60 1020.0
20260902163112 90 0 0.0 0.0 0.00 0.00 0.00 62 1020.1
20260902161603 90 0 0.0 0.0 0.00 0.00 0.00 59 1020.2
20260902160100 89 0 0.0 0.0 0.00 0.00 0.00 62 1020.4
20260902154554 89 0 0.0 0.0 0.00 0.00 0.00 64 1020.5
20260902153056 88 0 0.0 0.0 0.00 0.00 0.00 66 1020.4
20260902151555 87 0 0.0 0.0 0.00 0.00 0.00 68 1020.3
20260902150101 86 0 0.0 0.0 0.00 0.00 0.00 68 1020.3
20260902144602 85 0 0.0 0.0 0.00 0.00 0.00 71 1020.5
20260902143053 85 0 0.0 0.0 0.00 0.00 0.00 72 1020.5
20260902141552 84 0 0.0 0.0 0.00 0.00 0.00 72 1020.3
20260902140100 83 0 0.0 0.0 0.00 0.00 0.00 74 1020.2
20260902134603 82 0 0.0 0.0 0.00 0.00 0.00 76 1020.2
20260902133108 81 0 0.0 0.0 0.00 0.00 0.00 79 1020.2
20260902131609 80 0 0.0 0.0 0.00 0.00 0.00 81 1020.3
20260902130056 78 0 0.0 0.0 0.00 0.00 0.00 84 1020.2
20260902124554 77 0 0.0 0.0 0.00 0.00 0.00 85 1020.1
20260902123106 75 0 0.0 0.0 0.00 0.00 0.00 88 1019.9
20260902121601 73 0 0.0 0.0 0.00 0.00 0.00 89 1019.8
20260902120107 72 0 0.0 0.0 0.00 0.00 0.00 91 1019.9
20260902114553 71 0 0.0 0.0 0.00 0.00 0.00 93 1019.8
20260902113052 70 0 0.0 0.0 0.00 0.00 0.00 94 1019.6
20260902111604 70 0 0.0 0.0 0.00 0.00 0.00 92 1019.5
20260902110053 70 0 0.0 0.0 0.00 0.00 0.00 92 1019.3
20260902104550 70 0 0.0 0.0 0.00 0.00 0.00 91 1019.2
20260902103105 71 0 0.0 0.0 0.00 0.00 0.00 90 1019.2
20260902101555 72 0 0.0 0.0 0.00 0.00 0.00 89 1019.2
20260902100104 73 0 0.0 0.0 0.00 0.00 0.00 88 1019.1
20260902094554 73 0 0.0 0.0 0.00 0.00 0.00 86 1019.1
20260902093101 74 0 0.0 0.0 0.00 0.00 0.00 86 1019.1
20260902091554 74 0 0.0 0.0 0.00 0.00 0.00 86 1019.0
20260902090055 74 0 0.0 0.0 0.00 0.00 0.00 86 1018.9
20260902084600 74 0 0.0 0.0 0.00 0.00 0.00 85 1018.8
20260902083112 75 0 0.0 0.0 0.00 0.00 0.00 84 1018.7
20260902081557 75 0 0.0 0.0 0.00 0.00 0.00 84 1018.5
20260902080100 75 0 0.0 0.0 0.00 0.00 0.00 84 1018.4
20260902074609 75 0 0.0 0.0 0.00 0.00 0.00 83 1018.5
20260902073057 76 0 0.0 0.0 0.00 0.00 0.00 82 1018.5
20260902071604 76 0 0.0 0.0 0.00 0.00 0.00 82 1018.5
20260902070107 76 0 0.0 0.0 0.00 0.00 0.00 82 1018.5
20260902064554 76 0 0.0 0.0 0.00 0.00 0.00 82 1018.4
20260902063100 76 0 0.0 0.0 0.00 0.00 0.00 82 1018.5
20260902061604 76 0 0.0 0.0 0.00 0.00 0.00 82 1018.5
20260902060053 77 0 0.0 0.0 0.00 0.00 0.00 82 1018.6
20260902054601 77 0 0.0 0.0 0.00 0.00 0.00 82 1018.6
20260902053059 77 0 0.0 0.0 0.00 0.00 0.00 82 1018.7
20260902051559 77 0 0.0 0.0 0.00 0.00 0.00 82 1018.6
20260902044555 77 0 0.0 0.0 0.00 0.00 0.00 83 1018.5
20260902043104 77 0 0.0 0.0 0.00 0.00 0.00 83 1018.6
20260902041554 77 0 0.0 0.0 0.00 0.00 0.00 83 1018.7
20260902040055 77 0 0.0 0.0 0.00 0.00 0.00 83 1018.6
20260902034552 77 0 0.0 0.0 0.00 0.00 0.00 83 1018.6
20260902033056 77 0 0.0 0.0 0.00 0.00 0.00 84 1018.6
20260902031606 77 0 0.0 0.0 0.00 0.00 0.00 85 1018.7
20260902030053 77 0 0.0 0.0 0.00 0.00 0.00 85 1018.6
20260902024558 77 0 0.0 0.0 0.00 0.00 0.00 86 1018.8
20260902023103 78 0 0.0 0.0 0.00 0.00 0.00 84 1018.8
20260902021609 78 0 0.0 0.0 0.00 0.00 0.00 84 1018.7
20260902020107 79 0 0.0 0.0 0.00 0.00 0.00 83 1018.6
20260902014557 78 0 0.0 0.0 0.00 0.00 0.00 84 1018.6
20260902013056 78 0 0.0 0.0 0.00 0.00 0.00 84 1018.6
20260902011554 79 0 0.0 0.0 0.00 0.00 0.00 82 1018.5
20260902010100 80 0 0.0 0.0 0.00 0.00 0.00 81 1018.4
20260902004602 81 0 0.0 0.0 0.00 0.00 0.00 78 1018.2
20260902003104 83 0 0.0 0.0 0.00 0.00 0.00 78 1018.2